Overview Statistics Trail Chart Weather Telemetry Raw packets
 

This is the latest recevied weather packets stored in our database for station/object EA1GGY-1. If no packets are shown the sender has not sent any weather packets the latest 10 day(s).

<< 4 5 6 7 8 9 10 >>
Time Temp. Humidity Pressure Rain* Wind** Luminosity Snow
1788522077 28.33° C 30% 1021.6 hPa - - - -
1788521476 27.78° C 31% 1021.6 hPa - - - -
1788520876 27.22° C 32% 1021.4 hPa - - - -
1788520275 27.22° C 34% 1021.6 hPa - - - -
1788519674 26.67° C 35% 1021.6 hPa - - - -
1788519073 27.22° C 32% 1021.7 hPa - - - -
1788518472 26.67° C 34% 1021.6 hPa - - - -
1788517871 26.67° C 35% 1021.5 hPa - - - -
1788517271 26.11° C 36% 1021.7 hPa - - - -
1788516670 26.11° C 37% 1021.7 hPa - - - -
1788516069 24.44° C 43% 1021.7 hPa - - - -
1788515468 23.33° C 50% 1021.6 hPa - - - -
1788514868 23.33° C 49% 1021.7 hPa - - - -
1788514267 22.78° C 50% 1021.7 hPa - - - -
1788513666 22.22° C 50% 1021.6 hPa - - - -
1788513064 22.22° C 50% 1021.6 hPa - - - -
1788512463 22.22° C 50% 1021.6 hPa - - - -
1788511863 22.22° C 51% 1021.8 hPa - - - -
1788511262 21.11° C 51% 1021.7 hPa - - - -
1788510661 21.11° C 53% 1021.7 hPa - - - -
1788510075 20° C 53% 1021.6 hPa - - - -
1788509459 18.89° C 55% 1021.6 hPa - - - -
1788508859 18.89° C 55% 1021.6 hPa - - - -
1788508258 17.78° C 57% 1021.7 hPa - - - -
1788507657 17.22° C 59% 1021.6 hPa - - - -

* Rain since midnight (hover to see other rain measurements)
** Current wind speed in m/s (hover to see current wind gust speed)